Radiation Dose at Monitoring Post of Fukushima Daini Nuclear Power Station
Date,Time,MP-1(microSv/h),MP-2(microSv/h),MP-3(microSv/h),MP-4(microSv/h),MP-5(microSv/h),MP-6(microSv/h),MP-7(microSv/h),Wind Direction,Wind Velocity(m/s),Rain
2018/08/30,00:00,0.306,0.189,0.313,0.299,0.282,0.152,0.094,north-northeast,1.1,No
2018/08/30,00:10,0.308,0.190,0.310,0.296,0.278,0.153,0.094,north-northeast,0.9,No
2018/08/30,00:20,0.306,0.189,0.309,0.297,0.282,0.152,0.094,-,CALM,No
2018/08/30,00:30,0.308,0.190,0.310,0.297,0.282,0.152,0.093,northeast,0.8,No
2018/08/30,00:40,0.306,0.190,0.308,0.298,0.278,0.152,0.093,northeast,0.7,No
2018/08/30,00:50,0.307,0.189,0.313,0.300,0.283,0.150,0.093,-,CALM,No
2018/08/30,01:00,0.309,0.190,0.309,0.297,0.282,0.153,0.094,-,CALM,No
2018/08/30,01:10,0.307,0.190,0.309,0.299,0.279,0.153,0.094,-,CALM,No
2018/08/30,01:20,0.307,0.189,0.311,0.300,0.281,0.151,0.093,-,CALM,No
2018/08/30,01:30,0.309,0.190,0.309,0.296,0.279,0.152,0.094,south-southwest,2.0,No
2018/08/30,01:40,0.305,0.188,0.309,0.300,0.280,0.152,0.094,south-southwest,1.4,No
2018/08/30,01:50,0.308,0.190,0.310,0.299,0.282,0.152,0.094,south,2.4,No
2018/08/30,02:00,0.309,0.190,0.308,0.296,0.279,0.153,0.094,south,2.6,No
2018/08/30,02:10,0.305,0.190,0.310,0.299,0.279,0.153,0.094,south,3.0,No
2018/08/30,02:20,0.309,0.191,0.310,0.299,0.283,0.153,0.094,south,3.2,No
2018/08/30,02:30,0.308,0.189,0.309,0.298,0.279,0.153,0.093,south,2.8,No
2018/08/30,02:40,0.305,0.190,0.313,0.300,0.280,0.152,0.094,south,3.6,No
2018/08/30,02:50,0.309,0.191,0.310,0.297,0.282,0.151,0.094,south,3.9,No
2018/08/30,03:00,0.307,0.189,0.311,0.298,0.280,0.153,0.093,south,4.1,No
2018/08/30,03:10,0.308,0.190,0.310,0.299,0.283,0.153,0.094,south,3.1,No
2018/08/30,03:20,0.309,0.190,0.308,0.297,0.282,0.153,0.094,south,3.7,No
2018/08/30,03:30,0.306,0.190,0.313,0.300,0.279,0.153,0.095,south,3.1,No
2018/08/30,03:40,0.308,0.190,0.309,0.298,0.284,0.151,0.095,south,2.4,No
2018/08/30,03:50,0.308,0.189,0.310,0.297,0.281,0.152,0.095,south,3.7,No
2018/08/30,04:00,0.307,0.191,0.310,0.301,0.279,0.152,0.095,south,4.5,No
2018/08/30,04:10,0.310,0.190,0.308,0.296,0.283,0.152,0.094,south,5.6,No
2018/08/30,04:20,0.308,0.191,0.312,0.298,0.280,0.153,0.095,south,5.2,No
2018/08/30,04:30,0.306,0.192,0.311,0.299,0.283,0.152,0.095,south,5.0,No
2018/08/30,04:40,0.311,0.191,0.309,0.297,0.283,0.152,0.094,south,5.4,No
2018/08/30,04:50,0.307,0.191,0.312,0.299,0.280,0.153,0.095,south-southwest,5.2,No
2018/08/30,05:00,0.309,0.191,0.309,0.300,0.282,0.152,0.094,south,4.3,No
2018/08/30,05:10,0.309,0.191,0.311,0.297,0.282,0.153,0.094,south-southwest,4.7,No
2018/08/30,05:20,0.308,0.190,0.311,0.300,0.280,0.153,0.094,south-southwest,4.4,No
2018/08/30,05:30,0.309,0.191,0.309,0.298,0.282,0.152,0.095,south-southwest,4.0,No
2018/08/30,05:40,0.308,0.191,0.312,0.297,0.281,0.153,0.094,south-southwest,4.8,No
2018/08/30,05:50,0.306,0.190,0.310,0.301,0.279,0.153,0.094,south-southwest,4.1,No
2018/08/30,06:00,0.310,0.190,0.310,0.298,0.283,0.152,0.094,south,5.0,No
2018/08/30,06:10,0.308,0.191,0.313,0.299,0.279,0.153,0.094,south,5.1,No
2018/08/30,06:20,0.307,0.189,0.309,0.300,0.278,0.152,0.094,south-southwest,5.2,No
2018/08/30,06:30,0.310,0.190,0.312,0.297,0.282,0.152,0.094,south-southwest,3.4,No
2018/08/30,06:40,0.307,0.191,0.311,0.297,0.280,0.153,0.093,south-southwest,4.0,No
2018/08/30,06:50,0.305,0.190,0.309,0.300,0.278,0.154,0.093,southwest,3.4,No
2018/08/30,07:00,0.310,0.190,0.311,0.297,0.279,0.152,0.093,southwest,2.2,No
2018/08/30,07:10,0.307,0.191,0.312,0.296,0.284,0.152,0.093,south-southwest,2.5,No
2018/08/30,07:20,0.306,0.192,0.309,0.301,0.282,0.154,0.094,southwest,3.6,No
2018/08/30,07:30,0.309,0.189,0.307,0.301,0.280,0.153,0.093,southwest,3.7,No
2018/08/30,07:40,0.310,0.189,0.307,0.298,0.279,0.152,0.093,south-southwest,2.9,No
2018/08/30,07:50,0.308,0.189,0.312,0.296,0.278,0.152,0.094,south-southwest,3.0,No
2018/08/30,08:00,0.306,0.189,0.311,0.297,0.282,0.153,0.094,south-southwest,2.3,No
2018/08/30,08:10,0.306,0.190,0.309,0.295,0.283,0.153,0.094,southwest,2.1,No
2018/08/30,08:20,0.311,0.193,0.308,0.298,0.282,0.153,0.094,southwest,2.0,No
2018/08/30,08:30,0.309,0.191,0.312,0.298,0.280,0.153,0.094,west-southwest,0.9,No
2018/08/30,08:40,0.308,0.191,0.313,0.298,0.281,0.154,0.095,-,CALM,No
2018/08/30,08:50,0.307,0.191,0.311,0.298,0.281,0.153,0.095,-,CALM,No
2018/08/30,09:00,0.309,0.192,0.308,0.299,0.280,0.153,0.095,-,CALM,No
2018/08/30,09:10,0.309,0.191,0.308,0.299,0.282,0.152,0.094,south-southeast,0.8,No
2018/08/30,09:20,0.308,0.191,0.313,0.300,0.282,0.152,0.095,south-southeast,0.7,No
2018/08/30,09:30,0.308,0.191,0.314,0.299,0.282,0.152,0.093,-,CALM,No
2018/08/30,09:40,0.309,0.191,0.311,0.300,0.283,0.153,0.094,southwest,1.0,No
2018/08/30,09:50,0.309,0.191,0.310,0.300,0.283,0.153,0.094,south,1.1,No
2018/08/30,10:00,0.310,0.192,0.308,0.300,0.282,0.153,0.095,southeast,2.1,No
2018/08/30,10:10,0.309,0.191,0.309,0.299,0.281,0.154,0.095,south-southeast,2.5,No
2018/08/30,10:20,0.308,0.191,0.308,0.301,0.282,0.154,0.094,south,3.7,No
2018/08/30,10:30,0.310,0.191,0.308,0.301,0.282,0.154,0.096,south-southeast,4.0,No
2018/08/30,10:40,0.307,0.191,0.309,0.299,0.282,0.154,0.094,south-southeast,3.9,No
2018/08/30,10:50,0.309,0.191,0.310,0.300,0.282,0.153,0.094,south-southeast,5.6,No
2018/08/30,11:00,0.309,0.192,0.312,0.300,0.284,0.154,0.094,south,5.6,No
2018/08/30,11:10,0.310,0.191,0.311,0.300,0.283,0.154,0.095,south,5.3,No
2018/08/30,11:20,0.310,0.193,0.311,0.302,0.282,0.154,0.095,south,4.6,No
2018/08/30,11:30,0.311,0.191,0.311,0.301,0.282,0.155,0.095,south,5.3,No
2018/08/30,11:40,0.310,0.192,0.312,0.301,0.283,0.154,0.095,south,6.8,No
2018/08/30,11:50,0.311,0.193,0.312,0.301,0.283,0.153,0.095,south,7.9,No
2018/08/30,12:00,0.311,0.191,0.313,0.302,0.283,0.154,0.095,south,7.7,No
2018/08/30,12:10,0.312,0.191,0.312,0.301,0.282,0.154,0.094,south,7.9,No
2018/08/30,12:20,0.309,0.191,0.313,0.300,0.282,0.154,0.094,south,8.7,No
2018/08/30,12:30,0.308,0.191,0.311,0.298,0.282,0.154,0.095,south,7.9,No
2018/08/30,12:40,0.308,0.191,0.311,0.299,0.282,0.155,0.095,south,7.3,No
2018/08/30,12:50,0.308,0.190,0.313,0.299,0.281,0.154,0.093,south,7.6,No
2018/08/30,13:00,0.308,0.191,0.310,0.298,0.281,0.153,0.094,south-southwest,6.9,No
2018/08/30,13:10,0.308,0.192,0.310,0.300,0.283,0.153,0.094,south,5.2,No
2018/08/30,13:20,0.308,0.192,0.309,0.299,0.282,0.154,0.095,south-southwest,4.2,No
2018/08/30,13:30,0.309,0.191,0.312,0.299,0.283,0.154,0.094,southwest,2.6,No
2018/08/30,13:40,0.310,0.192,0.311,0.300,0.283,0.154,0.094,southwest,3.3,No
2018/08/30,13:50,0.310,0.191,0.311,0.301,0.284,0.154,0.095,southwest,2.4,No
2018/08/30,14:00,0.311,0.194,0.313,0.301,0.284,0.156,0.095,southwest,1.9,No
2018/08/30,14:10,0.311,0.192,0.314,0.303,0.285,0.155,0.095,southwest,1.4,No
2018/08/30,14:20,0.312,0.193,0.313,0.302,0.285,0.155,0.094,west,0.6,No
2018/08/30,14:30,0.312,0.193,0.315,0.301,0.284,0.155,0.095,northeast,0.9,No
2018/08/30,14:40,0.312,0.193,0.314,0.301,0.284,0.155,0.095,northeast,1.0,No
2018/08/30,14:50,0.312,0.192,0.311,0.301,0.283,0.155,0.095,east,0.6,No
2018/08/30,15:00,0.310,0.191,0.311,0.301,0.284,0.154,0.095,south-southeast,1.7,Yes
2018/08/30,15:10,0.309,0.192,0.312,0.301,0.282,0.154,0.095,southeast,0.8,Yes
2018/08/30,15:20,0.311,0.192,0.312,0.300,0.281,0.155,0.095,-,CALM,Yes
2018/08/30,15:30,0.310,0.193,0.313,0.301,0.283,0.156,0.096,north,2.1,Yes
2018/08/30,15:40,0.310,0.193,0.312,0.301,0.284,0.156,0.097,north-northwest,1.9,Yes
2018/08/30,15:50,0.314,0.195,0.314,0.300,0.284,0.158,0.099,north-northwest,3.9,Yes
2018/08/30,16:00,0.319,0.197,0.321,0.307,0.283,0.160,0.099,northwest,3.9,Yes
2018/08/30,16:10,0.318,0.200,0.321,0.308,0.290,0.160,0.100,northwest,2.9,Yes
2018/08/30,16:20,0.316,0.198,0.319,0.308,0.291,0.161,0.100,northwest,2.8,No
2018/08/30,16:30,0.313,0.198,0.317,0.305,0.289,0.159,0.100,north-northwest,5.8,No
2018/08/30,16:40,0.312,0.196,0.315,0.304,0.286,0.159,0.100,north,5.8,No
2018/08/30,16:50,0.314,0.195,0.319,0.304,0.285,0.159,0.099,north,8.8,No
2018/08/30,17:00,0.316,0.195,0.317,0.307,0.284,0.157,0.098,north,8.7,No
2018/08/30,17:10,0.313,0.196,0.316,0.305,0.287,0.157,0.097,north,6.9,No
2018/08/30,17:20,0.312,0.194,0.315,0.303,0.287,0.156,0.098,north,3.8,No
2018/08/30,17:30,0.316,0.194,0.317,0.303,0.282,0.156,0.097,north-northwest,4.2,No
2018/08/30,17:40,0.313,0.195,0.313,0.305,0.284,0.157,0.095,north,3.1,No
2018/08/30,17:50,0.311,0.193,0.313,0.302,0.286,0.156,0.095,north,3.8,No
2018/08/30,18:00,0.312,0.192,0.315,0.299,0.283,0.154,0.096,north,4.4,No
2018/08/30,18:10,0.312,0.193,0.314,0.302,0.280,0.154,0.096,north,5.1,No
2018/08/30,18:20,0.311,0.191,0.311,0.303,0.284,0.155,0.095,north,4.1,No
2018/08/30,18:30,0.309,0.192,0.313,0.300,0.284,0.154,0.095,north,4.8,No
2018/08/30,18:40,0.311,0.193,0.312,0.301,0.281,0.154,0.095,north,3.3,No
2018/08/30,18:50,0.311,0.191,0.311,0.302,0.284,0.155,0.093,north,2.9,No
2018/08/30,19:00,0.310,0.191,0.311,0.300,0.285,0.155,0.094,north,3.5,No
2018/08/30,19:10,0.314,0.192,0.313,0.300,0.282,0.153,0.095,north,2.1,No
2018/08/30,19:20,0.310,0.191,0.311,0.303,0.283,0.155,0.094,north,1.0,No
2018/08/30,19:30,0.309,0.191,0.312,0.299,0.284,0.154,0.095,-,CALM,No
2018/08/30,19:40,0.312,0.192,0.313,0.300,0.281,0.154,0.095,-,CALM,No
2018/08/30,19:50,0.309,0.192,0.312,0.303,0.282,0.153,0.094,north-northwest,0.6,No
2018/08/30,20:00,0.308,0.192,0.313,0.301,0.284,0.154,0.096,-,CALM,No
2018/08/30,20:10,0.311,0.191,0.313,0.299,0.283,0.153,0.094,south,0.6,No
2018/08/30,20:20,0.310,0.190,0.310,0.302,0.282,0.155,0.094,-,CALM,No
2018/08/30,20:30,0.309,0.192,0.312,0.300,0.285,0.154,0.095,-,CALM,No
2018/08/30,20:40,0.313,0.191,0.313,0.300,0.282,0.155,0.094,south-southwest,0.6,No
2018/08/30,20:50,0.311,0.191,0.310,0.302,0.281,0.155,0.094,south-southeast,0.9,No
2018/08/30,21:00,0.309,0.192,0.313,0.301,0.284,0.153,0.095,south,1.8,No
2018/08/30,21:10,0.311,0.189,0.313,0.300,0.281,0.153,0.095,south,1.7,No
2018/08/30,21:20,0.310,0.192,0.311,0.303,0.281,0.156,0.095,south,2.1,No
2018/08/30,21:30,0.309,0.193,0.313,0.299,0.284,0.154,0.095,south-southwest,1.4,No
2018/08/30,21:40,0.311,0.191,0.314,0.299,0.283,0.155,0.095,south-southwest,2.5,No
2018/08/30,21:50,0.311,0.192,0.310,0.302,0.280,0.154,0.094,south,3.1,No
2018/08/30,22:00,0.309,0.193,0.314,0.301,0.283,0.154,0.095,south-southwest,2.7,No
2018/08/30,22:10,0.312,0.190,0.314,0.299,0.285,0.154,0.095,south-southwest,2.9,No
2018/08/30,22:20,0.310,0.192,0.311,0.303,0.281,0.154,0.095,south-southwest,3.1,No
2018/08/30,22:30,0.310,0.192,0.314,0.303,0.283,0.155,0.095,south-southwest,3.7,No
2018/08/30,22:40,0.313,0.191,0.314,0.301,0.284,0.154,0.095,south-southwest,3.5,No
2018/08/30,22:50,0.311,0.193,0.313,0.304,0.283,0.155,0.095,south-southwest,5.7,No
2018/08/30,23:00,0.310,0.193,0.316,0.303,0.284,0.155,0.095,south-southwest,6.7,No
2018/08/30,23:10,0.313,0.191,0.313,0.301,0.285,0.155,0.096,south-southwest,5.8,No
2018/08/30,23:20,0.311,0.194,0.311,0.302,0.283,0.156,0.094,southwest,5.6,No
2018/08/30,23:30,0.308,0.193,0.314,0.302,0.283,0.155,0.095,southwest,5.6,No
2018/08/30,23:40,0.312,0.192,0.314,0.300,0.286,0.154,0.096,southwest,5.2,No
2018/08/30,23:50,0.312,0.193,0.312,0.303,0.284,0.155,0.095,southwest,5.0,No
